Terminal Aerodrome Forecast
Issued by NWS

Home | Current Version | Previous Version | Text Only | Print | Product List | Glossary On
Versions: 1 2 3 4 5 6 7 8 9 10 11 12 13 14
089
FTUS46 KSTO 220537
TAFRBL
TAF
KRBL 220537Z 2206/2306 31005KT P6SM OVC100
     FM222000 35006KT P6SM SCT250=

USA.gov is the U.S. government's official web portal to all federal, state and local government web resources and services.